Time,TemperatureF,DewpointF,PressureIn,WindDirection,WindDirectionDegrees,WindSpeedMPH,WindSpeedGustMPH,Humidity,HourlyPrecipIn,Conditions,Clouds,dailyrainin,SoftwareType,DateUTC
2013-07-19 00:12:00,78.7,67.0,29.95,SSW,213,0.0,6.0,68,0.00,,,0.00,weatherlink.com 1.10,2013-07-19 05:12:00,
2013-07-19 00:27:00,78.4,67.0,29.95,SSW,207,0.0,4.0,69,0.00,,,0.00,weatherlink.com 1.10,2013-07-19 05:27:00,
2013-07-19 00:42:00,77.9,67.0,29.95,SW,215,1.0,4.0,70,0.00,,,0.00,weatherlink.com 1.10,2013-07-19 05:42:00,
2013-07-19 00:57:00,77.6,68.0,29.95,WSW,242,1.0,3.0,71,0.00,,,0.00,weatherlink.com 1.10,2013-07-19 05:57:00,
2013-07-19 01:12:00,77.2,67.0,29.95,South,178,2.0,3.0,71,0.00,,,0.00,weatherlink.com 1.10,2013-07-19 06:12:00,
2013-07-19 01:27:00,76.9,67.0,29.94,SSW,213,0.0,3.0,72,0.00,,,0.00,weatherlink.com 1.10,2013-07-19 06:27:00,
2013-07-19 01:42:00,76.7,67.0,29.95,SW,214,1.0,4.0,73,0.00,,,0.00,weatherlink.com 1.10,2013-07-19 06:42:00,
2013-07-19 01:57:00,76.2,67.0,29.94,SW,221,1.0,5.0,74,0.00,,,0.00,weatherlink.com 1.10,2013-07-19 06:57:00,
2013-07-19 02:12:00,75.6,68.0,29.94,SW,214,0.0,4.0,76,0.00,,,0.00,weatherlink.com 1.10,2013-07-19 07:12:00,
2013-07-19 02:27:00,75.7,67.0,29.93,SW,223,0.0,5.0,75,0.00,,,0.00,weatherlink.com 1.10,2013-07-19 07:27:00,
2013-07-19 02:42:00,75.4,67.0,29.93,SW,216,1.0,5.0,76,0.00,,,0.00,weatherlink.com 1.10,2013-07-19 07:42:00,
2013-07-19 02:57:00,75.1,67.0,29.93,SSW,212,2.0,4.0,77,0.00,,,0.00,weatherlink.com 1.10,2013-07-19 07:57:00,
2013-07-19 03:12:00,74.5,67.0,29.92,SW,214,0.0,4.0,78,0.00,,,0.00,weatherlink.com 1.10,2013-07-19 08:12:00,
2013-07-19 03:27:00,74.3,67.0,29.92,SSW,197,4.0,4.0,79,0.00,,,0.00,weatherlink.com 1.10,2013-07-19 08:27:00,
2013-07-19 03:42:00,74.0,67.0,29.92,SW,217,2.0,5.0,79,0.00,,,0.00,weatherlink.com 1.10,2013-07-19 08:42:00,
2013-07-19 03:58:00,73.7,68.0,29.92,SSW,211,0.0,4.0,81,0.00,,,0.00,weatherlink.com 1.10,2013-07-19 08:58:00,
2013-07-19 04:13:00,73.2,67.0,29.91,SW,218,0.0,3.0,82,0.00,,,0.00,weatherlink.com 1.10,2013-07-19 09:13:00,
2013-07-19 04:28:00,72.8,67.0,29.92,South,187,0.0,5.0,83,0.00,,,0.00,weatherlink.com 1.10,2013-07-19 09:28:00,
2013-07-19 04:43:00,72.9,68.0,29.91,SSW,212,2.0,7.0,83,0.00,,,0.00,weatherlink.com 1.10,2013-07-19 09:43:00,
2013-07-19 04:58:00,72.5,67.0,29.91,South,183,1.0,5.0,84,0.00,,,0.00,weatherlink.com 1.10,2013-07-19 09:58:00,
2013-07-19 05:13:00,72.7,68.0,29.91,SSW,213,2.0,6.0,84,0.00,,,0.00,weatherlink.com 1.10,2013-07-19 10:13:00,
2013-07-19 05:28:00,72.8,67.0,29.91,SSW,197,3.0,5.0,83,0.00,,,0.00,weatherlink.com 1.10,2013-07-19 10:28:00,
2013-07-19 05:43:00,73.0,68.0,29.91,SW,217,4.0,5.0,83,0.00,,,0.00,weatherlink.com 1.10,2013-07-19 10:43:00,
2013-07-19 05:58:00,72.8,67.0,29.91,SW,222,1.0,4.0,83,0.00,,,0.00,weatherlink.com 1.10,2013-07-19 10:58:00,
2013-07-19 06:13:00,72.8,67.0,29.92,SSW,207,1.0,6.0,83,0.00,,,0.00,weatherlink.com 1.10,2013-07-19 11:13:00,
2013-07-19 06:28:00,72.5,67.0,29.92,SSW,206,1.0,4.0,83,0.00,,,0.00,weatherlink.com 1.10,2013-07-19 11:28:00,
2013-07-19 06:43:00,72.3,67.0,29.92,SSW,207,1.0,5.0,84,0.00,,,0.00,weatherlink.com 1.10,2013-07-19 11:43:00,
2013-07-19 06:58:00,72.7,67.0,29.92,SSW,213,0.0,4.0,83,0.00,,,0.00,weatherlink.com 1.10,2013-07-19 11:58:00,
2013-07-19 07:13:00,72.7,67.0,29.92,SW,221,1.0,5.0,83,0.00,,,0.00,weatherlink.com 1.10,2013-07-19 12:13:00,
2013-07-19 07:28:00,73.3,68.0,29.93,SSW,200,1.0,7.0,82,0.00,,,0.00,weatherlink.com 1.10,2013-07-19 12:28:00,
2013-07-19 07:43:00,74.5,68.0,29.93,SW,220,2.0,9.0,80,0.00,,,0.00,weatherlink.com 1.10,2013-07-19 12:43:00,
2013-07-19 07:58:00,75.8,69.0,29.93,SW,219,2.0,8.0,78,0.00,,,0.00,weatherlink.com 1.10,2013-07-19 12:58:00,
2013-07-19 08:13:00,77.1,69.0,29.93,SSW,194,7.0,7.0,76,0.00,,,0.00,weatherlink.com 1.10,2013-07-19 13:13:00,
2013-07-19 08:28:00,78.0,69.0,29.93,SW,216,3.0,7.0,74,0.00,,,0.00,weatherlink.com 1.10,2013-07-19 13:28:00,
2013-07-19 08:43:00,79.1,70.0,29.93,SW,218,3.0,7.0,73,0.00,,,0.00,weatherlink.com 1.10,2013-07-19 13:43:00,
2013-07-19 08:58:00,80.4,70.0,29.93,SW,229,1.0,6.0,71,0.00,,,0.00,weatherlink.com 1.10,2013-07-19 13:58:00,
2013-07-19 09:13:00,81.6,70.0,29.93,SW,234,3.0,7.0,68,0.00,,,0.00,weatherlink.com 1.10,2013-07-19 14:13:00,
2013-07-19 09:28:00,82.1,70.0,29.93,SW,234,3.0,10.0,66,0.00,,,0.00,weatherlink.com 1.10,2013-07-19 14:28:00,
2013-07-19 09:43:00,83.1,69.0,29.93,SSW,207,3.0,11.0,63,0.00,,,0.00,weatherlink.com 1.10,2013-07-19 14:43:00,
2013-07-19 09:58:00,83.6,70.0,29.93,SSW,198,5.0,11.0,63,0.00,,,0.00,weatherlink.com 1.10,2013-07-19 14:58:00,
2013-07-19 10:13:00,84.4,70.0,29.92,South,184,2.0,10.0,62,0.00,,,0.00,weatherlink.com 1.10,2013-07-19 15:13:00,
2013-07-19 10:28:00,85.3,70.0,29.92,SW,217,2.0,8.0,61,0.00,,,0.00,weatherlink.com 1.10,2013-07-19 15:28:00,
2013-07-19 10:43:00,85.9,70.0,29.92,SSW,206,4.0,9.0,60,0.00,,,0.00,weatherlink.com 1.10,2013-07-19 15:43:00,
2013-07-19 10:58:00,86.8,69.0,29.92,SW,230,5.0,12.0,56,0.00,,,0.00,weatherlink.com 1.10,2013-07-19 15:58:00,
2013-07-19 11:13:00,86.8,69.0,29.91,SSW,206,0.0,9.0,56,0.00,,,0.00,weatherlink.com 1.10,2013-07-19 16:13:00,
2013-07-19 11:28:00,87.7,71.0,29.91,SSW,202,1.0,7.0,57,0.00,,,0.00,weatherlink.com 1.10,2013-07-19 16:28:00,
2013-07-19 11:43:00,88.6,69.0,29.91,South,190,4.0,14.0,53,0.00,,,0.00,weatherlink.com 1.10,2013-07-19 16:43:00,
2013-07-19 11:58:00,88.7,69.0,29.90,SW,233,1.0,11.0,52,0.00,,,0.00,weatherlink.com 1.10,2013-07-19 16:58:00,
2013-07-19 12:13:00,89.9,69.0,29.89,South,174,5.0,7.0,51,0.00,,,0.00,weatherlink.com 1.10,2013-07-19 17:13:00,
2013-07-19 12:28:00,89.9,70.0,29.89,WNW,293,0.0,8.0,52,0.00,,,0.00,weatherlink.com 1.10,2013-07-19 17:28:00,
2013-07-19 12:43:00,91.1,68.0,29.89,WSW,247,2.0,13.0,47,0.00,,,0.00,weatherlink.com 1.10,2013-07-19 17:43:00,
2013-07-19 12:58:00,91.3,68.0,29.89,SW,221,3.0,7.0,47,0.00,,,0.00,weatherlink.com 1.10,2013-07-19 17:58:00,
2013-07-19 13:13:00,91.3,68.0,29.89,SW,219,7.0,9.0,46,0.00,,,0.00,weatherlink.com 1.10,2013-07-19 18:13:00,
2013-07-19 13:30:00,91.4,68.0,29.88,WNW,300,4.0,7.0,46,0.00,,,0.00,weatherlink.com 1.10,2013-07-19 18:30:00,
2013-07-19 13:44:00,91.6,69.0,29.87,South,181,2.0,11.0,48,0.00,,,0.00,weatherlink.com 1.10,2013-07-19 18:44:00,
2013-07-19 13:59:00,91.3,68.0,29.87,WSW,240,3.0,10.0,46,0.00,,,0.00,weatherlink.com 1.10,2013-07-19 18:59:00,
2013-07-19 14:14:00,92.6,68.0,29.87,WSW,242,5.0,9.0,44,0.00,,,0.00,weatherlink.com 1.10,2013-07-19 19:14:00,
2013-07-19 14:29:00,93.4,69.0,29.86,WSW,242,4.0,9.0,45,0.00,,,0.00,weatherlink.com 1.10,2013-07-19 19:29:00,
2013-07-19 14:44:00,93.5,69.0,29.86,SSW,196,0.0,8.0,45,0.00,,,0.00,weatherlink.com 1.10,2013-07-19 19:44:00,
2013-07-19 14:59:00,93.3,67.0,29.85,SW,230,3.0,10.0,42,0.00,,,0.00,weatherlink.com 1.10,2013-07-19 19:59:00,
2013-07-19 15:14:00,93.4,69.0,29.85,SW,233,1.0,10.0,45,0.00,,,0.00,weatherlink.com 1.10,2013-07-19 20:14:00,
2013-07-19 15:29:00,93.4,67.0,29.84,South,175,5.0,8.0,42,0.00,,,0.00,weatherlink.com 1.10,2013-07-19 20:29:00,
2013-07-19 15:44:00,94.0,68.0,29.83,SW,233,6.0,7.0,42,0.00,,,0.00,weatherlink.com 1.10,2013-07-19 20:44:00,
2013-07-19 15:59:00,93.6,68.0,29.83,SW,223,3.0,9.0,43,0.00,,,0.00,weatherlink.com 1.10,2013-07-19 20:59:00,
2013-07-19 16:14:00,92.8,67.0,29.82,SSW,213,2.0,7.0,43,0.00,,,0.00,weatherlink.com 1.10,2013-07-19 21:14:00,
2013-07-19 16:29:00,93.0,66.0,29.82,SSW,196,3.0,8.0,41,0.00,,,0.00,weatherlink.com 1.10,2013-07-19 21:29:00,
2013-07-19 16:44:00,94.2,69.0,29.81,SSW,197,3.0,8.0,44,0.00,,,0.00,weatherlink.com 1.10,2013-07-19 21:44:00,
2013-07-19 16:59:00,93.9,66.0,29.80,SW,216,1.0,11.0,40,0.00,,,0.00,weatherlink.com 1.10,2013-07-19 21:59:00,
2013-07-19 17:14:00,92.1,69.0,29.80,SSW,211,0.0,7.0,47,0.00,,,0.00,weatherlink.com 1.10,2013-07-19 22:14:00,
2013-07-19 17:29:00,91.5,66.0,29.80,West,259,5.0,8.0,43,0.00,,,0.00,weatherlink.com 1.10,2013-07-19 22:29:00,
2013-07-19 17:44:00,92.4,69.0,29.79,SW,223,5.0,7.0,46,0.00,,,0.00,weatherlink.com 1.10,2013-07-19 22:44:00,
2013-07-19 17:59:00,92.4,67.0,29.79,South,184,1.0,8.0,43,0.00,,,0.00,weatherlink.com 1.10,2013-07-19 22:59:00,
2013-07-19 18:14:00,91.4,66.0,29.79,SW,236,1.0,8.0,43,0.00,,,0.00,weatherlink.com 1.10,2013-07-19 23:14:00,
2013-07-19 18:29:00,91.5,67.0,29.78,WSW,247,1.0,8.0,45,0.00,,,0.00,weatherlink.com 1.10,2013-07-19 23:29:00,
2013-07-19 18:44:00,90.7,67.0,29.78,SSE,156,2.0,11.0,46,0.00,,,0.00,weatherlink.com 1.10,2013-07-19 23:44:00,
2013-07-19 18:59:00,90.4,66.0,29.78,SW,221,1.0,8.0,45,0.00,,,0.00,weatherlink.com 1.10,2013-07-19 23:59:00,
2013-07-19 19:14:00,90.1,67.0,29.78,SW,229,2.0,7.0,46,0.00,,,0.00,weatherlink.com 1.10,2013-07-20 00:14:00,
2013-07-19 19:29:00,89.9,66.0,29.79,East,98,0.0,7.0,46,0.00,,,0.00,weatherlink.com 1.10,2013-07-20 00:29:00,
2013-07-19 19:44:00,90.0,67.0,29.79,SSW,196,0.0,7.0,46,0.00,,,0.00,weatherlink.com 1.10,2013-07-20 00:44:00,
2013-07-19 19:59:00,89.5,66.0,29.79,South,181,1.0,7.0,46,0.00,,,0.00,weatherlink.com 1.10,2013-07-20 00:59:00,
2013-07-19 20:14:00,89.1,67.0,29.80,SSW,205,1.0,4.0,48,0.00,,,0.00,weatherlink.com 1.10,2013-07-20 01:14:00,
2013-07-19 20:29:00,88.4,67.0,29.81,SSW,205,1.0,7.0,49,0.00,,,0.00,weatherlink.com 1.10,2013-07-20 01:29:00,
2013-07-19 20:44:00,87.5,67.0,29.81,SSW,203,0.0,5.0,50,0.00,,,0.00,weatherlink.com 1.10,2013-07-20 01:44:00,
2013-07-19 20:59:00,86.8,67.0,29.81,South,191,1.0,5.0,52,0.00,,,0.00,weatherlink.com 1.10,2013-07-20 01:59:00,
2013-07-19 21:14:00,86.1,67.0,29.82,SE,142,0.0,5.0,53,0.00,,,0.00,weatherlink.com 1.10,2013-07-20 02:14:00,
2013-07-19 21:29:00,86.0,67.0,29.82,SSW,192,0.0,4.0,53,0.00,,,0.00,weatherlink.com 1.10,2013-07-20 02:29:00,
2013-07-19 21:44:00,85.2,67.0,29.82,SSW,202,0.0,3.0,55,0.00,,,0.00,weatherlink.com 1.10,2013-07-20 02:44:00,
2013-07-19 21:59:00,85.0,67.0,29.83,South,179,2.0,6.0,55,0.00,,,0.00,weatherlink.com 1.10,2013-07-20 02:59:00,
2013-07-19 22:14:00,84.6,67.0,29.83,SSW,198,3.0,5.0,56,0.00,,,0.00,weatherlink.com 1.10,2013-07-20 03:14:00,
2013-07-19 22:29:00,83.8,67.0,29.83,SSW,194,1.0,1.0,58,0.00,,,0.00,weatherlink.com 1.10,2013-07-20 03:29:00,
2013-07-19 22:44:00,83.6,67.0,29.84,SSW,194,0.0,3.0,58,0.00,,,0.00,weatherlink.com 1.10,2013-07-20 03:44:00,
2013-07-19 22:59:00,83.5,67.0,29.83,South,184,0.0,4.0,58,0.00,,,0.00,weatherlink.com 1.10,2013-07-20 03:59:00,
2013-07-19 23:14:00,83.6,67.0,29.83,SSW,207,3.0,6.0,58,0.00,,,0.00,weatherlink.com 1.10,2013-07-20 04:14:00,
2013-07-19 23:29:00,83.0,67.0,29.83,South,186,0.0,6.0,59,0.00,,,0.00,weatherlink.com 1.10,2013-07-20 04:29:00,
2013-07-19 23:44:00,82.5,67.0,29.83,SW,234,2.0,7.0,60,0.00,,,0.00,weatherlink.com 1.10,2013-07-20 04:44:00,
2013-07-19 23:59:00,82.0,67.0,29.83,SW,225,3.0,6.0,61,0.00,,,0.00,weatherlink.com 1.10,2013-07-20 04:59:00,